Location: Harbor City
(33.7900°N, 118.2979°W)
Time: 14:56:48
(UTC+00:00)

Daily predictions for brighter satellites

Satellite Brightness Start Highest point End
(mag) Time Altitude Azimuth Time Altitude Azimuth Time Altitude Azimuth
ATLAS 5 CENTAUR R/B 3.4 12:20:01 21° SE 12:20:58 24° ESE 12:24:07 10° ENE
Cosmos 1867 4.2 12:24:57 46° S 12:24:57 46° S 12:28:49 10° SSE
Cosmos 1241 Rocket 4.3 12:25:05 78° NW 12:25:34 88° WSW 12:31:46 10° SSE
Meteor 2-13 Rocket 4.3 12:22:48 10° S 12:28:55 88° W 12:35:02 10° N
BREEZE-M DEB 4.3 12:31:18 30° E 12:31:18 30° E 12:34:14 10° ENE
CENTAUR R/B 4.5 12:40:22 14° N 12:40:22 14° N 12:41:55 10° N
Hubble Space Telescope 3.4 12:43:46 10° S 12:43:46 10° S 12:43:56 10° S
H-2A R/B 3.2 12:42:12 47° NE 12:42:59 59° E 12:46:42 10° S
COSMO-SKYMED 1 4.1 12:40:40 10° SE 12:44:36 35° ENE 12:48:33 10° N
Meteor 1-31 Rocket 3.9 12:41:22 10° NNE 12:45:08 43° E 12:48:51 10° S
Envisat 3.1 12:43:32 10° NNE 12:48:37 75° ESE 12:53:40 10° S
MOS 1-B Rocket 4.1 12:43:03 10° SSE 12:49:29 74° ENE 12:55:14 10° N
Cosmos 1174 4.4 12:51:49 39° ESE 12:51:51 40° ESE 12:54:39 10° NE
Cosmos 2263 4.5 12:55:11 44° NW 12:55:11 44° NW 13:00:12 10° N
CZ-4B R/B 4.3 12:53:41 10° NNE 12:58:10 72° ESE 13:02:33 10° S
Cosmos 2369 Rocket 3.7 13:03:39 19° NNW 13:03:39 19° NNW 13:05:39 10° N
Cosmos 1656 Rocket 4.3 13:05:31 32° NW 13:05:31 32° NW 13:09:25 10° N
ATLAS 3B R/B 2.9 13:00:55 10° SSW 13:07:17 67° ESE 13:13:55 10° NE
Landsat 5 4.5 13:04:44 10° SSE 13:09:06 51° ENE 13:13:26 10° N
DELTA 2 R/B (1) 4.0 13:10:34 33° NW 13:12:31 47° N 13:17:51 10° ENE
SJ 16-02 1.7 13:09:10 10° S 13:13:29 64° ESE 13:17:49 10° NNE
CZ-2C R/B 2.6 13:11:39 10° SSE 13:17:10 89° ENE 13:22:35 10° NNW
Cosmos 1354 Rocket 4.1 13:12:35 10° SW 13:17:40 50° WNW 13:22:49 10° N
CBERS 1 LM4 rocket 4.4 13:13:10 10° N 13:18:06 68° WNW 13:23:11 10° SSW
Cosmos 1515 Rocket 4.4 13:15:25 10° N 13:19:38 49° E 13:23:49 10° SSE
FALCON 9 R/B 4.1 13:04:37 23° W 13:22:30 87° SSW 13:29:33 10° ESE
SL-19 R/B 4.3 13:19:58 10° S 13:25:29 57° WSW 13:30:58 10° NNW
Cosmos 2279 Rocket 4.0 13:22:49 10° NNW 13:28:55 62° W 13:35:00 10° S
Nadezhda 4 Rocket 4.0 13:25:39 10° S 13:31:48 89° E 13:38:02 10° N
Cosmos 1500 Rocket 3.9 13:28:03 10° S 13:32:27 68° E 13:36:55 10° NNE
SKYMED 2 3.6 13:28:18 10° S 13:32:34 59° W 13:36:51 10° NNW
Cosmos 921 Rocket 4.2 13:33:05 23° W 13:33:35 23° W 13:37:07 10° SSW
USA 215 4.3 13:30:52 10° E 13:36:45 37° NE 13:42:38 10° NNW
ADEOS 3.5 13:35:22 10° N 13:40:34 70° WNW 13:45:45 10° SSW
Meteor PRIRODA 3.7 13:38:11 10° NNE 13:41:48 81° E 13:45:26 10° S
CZ-4B R/B 2.8 13:40:31 10° NNE 13:44:06 74° ESE 13:47:45 10° S
H-2A R/B 3.7 13:41:59 10° SE 13:45:50 34° ENE 13:49:46 10° N
SL-27 R/B 2.6 13:43:17 10° NNW 13:46:50 75° ENE 13:50:19 10° SSE
Cosmos 1812 4.2 13:47:07 17° W 13:47:17 17° W 13:49:47 10° SW
Meteor 2-15 4.4 13:41:28 10° NNW 13:47:29 68° W 13:53:28 10° S
Cosmos 1340 Rocket 2.7 13:45:19 10° SSW 13:49:14 69° W 13:53:12 10° N
Cosmos 1151 Rocket 4.2 13:47:00 14° NW 13:49:27 22° W 13:52:50 10° SW
Cosmos 1092 Rocket 4.3 13:43:37 10° S 13:49:48 71° E 13:56:04 10° N
SMAP 4.1 13:46:28 10° NNE 13:51:00 49° E 13:55:29 10° S
NOAA 11 4.3 13:51:48 10° N 13:57:09 56° WNW 14:02:29 10° SSW
SL-8 R/B 4.0 13:54:54 11° NW 13:59:27 64° NE 14:04:11 10° ESE
FAST Rocket 4.0 13:57:16 10° SSW 13:59:51 51° W 14:02:34 10° N
OAO 2 Rocket 3.9 13:54:58 10° WSW 14:00:04 59° SSE 14:05:04 10° E
CZ-2C R/B 3.0 13:56:04 10° N 14:01:00 66° WNW 14:06:11 10° SSW
ATLAS 5 CENTAUR R/B 2.6 14:02:35 10° W 14:05:25 20° NW 14:08:27 10° N
CZ-4B R/B 3.7 14:03:38 10° SE 14:06:21 24° ENE 14:09:04 10° NNE
H-2A R/B 3.9 14:02:40 10° NNE 14:07:09 35° E 14:11:39 10° SSE
Cosmos 773 Rocket 4.2 14:08:23 10° NNW 14:13:24 51° WSW 14:18:21 10° S
USA 32 4.1 14:09:56 10° N 14:15:11 85° W 14:20:26 10° S
Cosmos 1939 Rocket 2.8 14:13:03 10° N 14:16:53 58° WNW 14:20:40 10° SSW
Meteor 1-27 Rocket 3.9 14:11:54 10° NNW 14:17:26 54° W 14:23:03 10° S
BREEZE-M DEB (TANK) 4.4 14:06:53 10° WSW 14:17:57 31° NW 14:21:41 10° NNE
BREEZE-M DEB (TANK) 4.3 14:12:35 10° NW 14:23:54 36° WSW 14:27:57 10° S
CZ-3 R/B 2.8 14:15:36 10° WSW 14:26:14 39° S 14:30:21 10° ESE
